| time (UTC) | temp F | wind direction | speed MPH | gust MPH | rain 1hr in | rain 24hr in | rain mn in | humidity % | barometer mb |
| 20260509192003 | 48 | 149 | 1.0 | 12.0 | 0.00 | 0.00 | 0.00 | 43 | 1010.2 |
| 20260509191504 | 48 | 158 | 0.0 | 7.0 | 0.00 | 0.00 | 0.00 | 43 | 1010.2 |
| 20260509190504 | 49 | 178 | 3.0 | 13.0 | 0.00 | 0.00 | 0.00 | 42 | 1010.1 |
| 20260509190003 | 49 | 152 | 3.0 | 12.0 | 0.00 | 0.00 | 0.00 | 42 | 1010.0 |
| 20260509185503 | 49 | 156 | 2.0 | 12.0 | 0.00 | 0.00 | 0.00 | 42 | 1010.0 |
| 20260509185003 | 49 | 161 | 3.0 | 12.0 | 0.00 | 0.00 | 0.00 | 41 | 1010.1 |
| 20260509184504 | 49 | 143 | 0.0 | 8.0 | 0.00 | 0.00 | 0.00 | 41 | 1010.1 |
| 20260509184003 | 50 | 158 | 3.0 | 10.0 | 0.00 | 0.00 | 0.00 | 41 | 1010.1 |
| 20260509183504 | 50 | 168 | 2.0 | 8.0 | 0.00 | 0.00 | 0.00 | 41 | 1010.1 |
| 20260509183003 | 50 | 145 | 2.0 | 13.0 | 0.00 | 0.00 | 0.00 | 40 | 1010.0 |
| 20260509182504 | 50 | 140 | 2.0 | 12.0 | 0.00 | 0.00 | 0.00 | 40 | 1010.0 |
| 20260509182004 | 51 | 172 | 3.0 | 12.0 | 0.00 | 0.00 | 0.00 | 40 | 1010.0 |
| 20260509181004 | 51 | 177 | 3.0 | 10.0 | 0.00 | 0.00 | 0.00 | 39 | 1010.1 |
| 20260509180503 | 52 | 144 | 2.0 | 12.0 | 0.00 | 0.00 | 0.00 | 39 | 1010.1 |
| 20260509180003 | 52 | 144 | 3.0 | 15.0 | 0.00 | 0.00 | 0.00 | 39 | 1010.1 |
| 20260509175504 | 52 | 150 | 2.0 | 12.0 | 0.00 | 0.00 | 0.00 | 39 | 1010.1 |
| 20260509175004 | 52 | 154 | 2.0 | 9.0 | 0.00 | 0.00 | 0.00 | 40 | 1010.2 |
| 20260509174504 | 53 | 148 | 1.0 | 7.0 | 0.00 | 0.00 | 0.00 | 40 | 1010.1 |
| 20260509174003 | 53 | 148 | 0.0 | 5.0 | 0.00 | 0.00 | 0.00 | 41 | 1010.2 |
| 20260509173503 | 53 | 141 | 0.0 | 3.0 | 0.00 | 0.00 | 0.00 | 41 | 1010.2 |
| 20260509173004 | 53 | 140 | 1.0 | 9.0 | 0.00 | 0.00 | 0.00 | 41 | 1010.3 |
| 20260509172504 | 53 | 157 | 0.0 | 6.0 | 0.00 | 0.00 | 0.00 | 41 | 1010.3 |
| 20260509172003 | 53 | 177 | 2.0 | 9.0 | 0.00 | 0.00 | 0.00 | 42 | 1010.4 |
| 20260509171504 | 53 | 177 | 1.0 | 3.0 | 0.00 | 0.00 | 0.00 | 42 | 1010.4 |
| 20260509171003 | 54 | 148 | 0.0 | 7.0 | 0.00 | 0.00 | 0.00 | 42 | 1010.3 |
| 20260509170504 | 54 | 185 | 1.0 | 12.0 | 0.00 | 0.00 | 0.00 | 42 | 1010.3 |
| 20260509170004 | 54 | 203 | 3.0 | 18.0 | 0.00 | 0.00 | 0.00 | 42 | 1010.4 |
| 20260509165504 | 54 | 184 | 3.0 | 13.0 | 0.00 | 0.00 | 0.00 | 42 | 1010.4 |
| 20260509165003 | 54 | 213 | 2.0 | 9.0 | 0.00 | 0.00 | 0.00 | 42 | 1010.4 |
| 20260509164504 | 54 | 183 | 4.0 | 14.0 | 0.00 | 0.00 | 0.00 | 42 | 1010.4 |
| 20260509164004 | 54 | 178 | 2.0 | 8.0 | 0.00 | 0.00 | 0.00 | 42 | 1010.4 |
| 20260509163503 | 54 | 170 | 0.0 | 8.0 | 0.00 | 0.00 | 0.00 | 42 | 1010.5 |
| 20260509163003 | 55 | 193 | 1.0 | 8.0 | 0.00 | 0.00 | 0.00 | 42 | 1010.5 |
| 20260509162503 | 55 | 197 | 2.0 | 6.0 | 0.00 | 0.00 | 0.00 | 43 | 1010.6 |
| 20260509161504 | 55 | 224 | 3.0 | 9.0 | 0.00 | 0.00 | 0.00 | 42 | 1010.8 |
| 20260509160503 | 55 | 238 | 4.0 | 16.0 | 0.00 | 0.00 | 0.00 | 41 | 1011.0 |
| 20260509160004 | 55 | 208 | 7.0 | 14.0 | 0.00 | 0.00 | 0.00 | 40 | 1011.0 |
| 20260509155504 | 55 | 206 | 6.0 | 17.0 | 0.00 | 0.00 | 0.00 | 41 | 1010.9 |
| 20260509154504 | 55 | 209 | 1.0 | 12.0 | 0.00 | 0.00 | 0.00 | 43 | 1011.1 |
| 20260509154003 | 55 | 301 | 3.0 | 16.0 | 0.00 | 0.00 | 0.00 | 42 | 1011.2 |
| 20260509153503 | 55 | 219 | 1.0 | 13.0 | 0.00 | 0.00 | 0.00 | 43 | 1011.3 |
| 20260509153004 | 55 | 234 | 2.0 | 17.0 | 0.00 | 0.00 | 0.00 | 43 | 1011.1 |
| 20260509152504 | 55 | 234 | 1.0 | 10.0 | 0.00 | 0.00 | 0.00 | 42 | 1011.1 |
| 20260509151504 | 55 | 244 | 5.0 | 18.0 | 0.00 | 0.00 | 0.00 | 40 | 1011.1 |
| 20260509151004 | 55 | 198 | 1.0 | 14.0 | 0.00 | 0.00 | 0.00 | 39 | 1011.2 |
| 20260509150504 | 55 | 206 | 5.0 | 13.0 | 0.00 | 0.00 | 0.00 | 38 | 1011.3 |
| 20260509150003 | 56 | 167 | 3.0 | 13.0 | 0.00 | 0.00 | 0.00 | 38 | 1011.3 |
| 20260509145503 | 56 | 204 | 5.0 | 18.0 | 0.00 | 0.00 | 0.00 | 37 | 1011.5 |
| 20260509144004 | 56 | 219 | 1.0 | 9.0 | 0.00 | 0.00 | 0.00 | 37 | 1011.3 |
| 20260509143503 | 56 | 192 | 3.0 | 16.0 | 0.00 | 0.00 | 0.00 | 37 | 1011.5 |
| 20260509142503 | 56 | 176 | 1.0 | 9.0 | 0.00 | 0.00 | 0.00 | 38 | 1011.4 |
| 20260509142004 | 56 | 193 | 4.0 | 9.0 | 0.00 | 0.00 | 0.00 | 38 | 1011.5 |
| 20260509141504 | 56 | 150 | 1.0 | 8.0 | 0.00 | 0.00 | 0.00 | 38 | 1011.6 |
| 20260509140504 | 56 | 178 | 6.0 | 15.0 | 0.00 | 0.00 | 0.00 | 38 | 1011.6 |
| 20260509140004 | 56 | 178 | 3.0 | 14.0 | 0.00 | 0.00 | 0.00 | 38 | 1011.6 |
| 20260509135504 | 56 | 197 | 6.0 | 17.0 | 0.00 | 0.00 | 0.00 | 38 | 1011.7 |
| 20260509135004 | 56 | 171 | 1.0 | 14.0 | 0.00 | 0.00 | 0.00 | 39 | 1011.8 |
| 20260509134504 | 56 | 181 | 3.0 | 12.0 | 0.00 | 0.00 | 0.00 | 39 | 1011.9 |
| 20260509133503 | 56 | 192 | 2.0 | 15.0 | 0.00 | 0.00 | 0.00 | 39 | 1012.0 |
| 20260509133004 | 56 | 184 | 7.0 | 23.0 | 0.00 | 0.00 | 0.00 | 39 | 1012.0 |
| 20260509132503 | 57 | 206 | 3.0 | 12.0 | 0.00 | 0.00 | 0.00 | 39 | 1012.1 |
| 20260509132003 | 56 | 172 | 5.0 | 17.0 | 0.00 | 0.00 | 0.00 | 39 | 1012.2 |
| 20260509131504 | 56 | 201 | 3.0 | 12.0 | 0.00 | 0.00 | 0.00 | 39 | 1012.1 |
| 20260509131004 | 56 | 195 | 1.0 | 8.0 | 0.00 | 0.00 | 0.00 | 39 | 1012.2 |
| 20260509130504 | 56 | 201 | 5.0 | 14.0 | 0.00 | 0.00 | 0.00 | 38 | 1012.3 |
| 20260509130004 | 56 | 202 | 2.0 | 10.0 | 0.00 | 0.00 | 0.00 | 38 | 1012.3 |
| 20260509125503 | 56 | 185 | 5.0 | 12.0 | 0.00 | 0.00 | 0.00 | 38 | 1012.3 |
| 20260509124504 | 57 | 187 | 7.0 | 20.0 | 0.00 | 0.00 | 0.00 | 36 | 1012.5 |
| 20260509124004 | 57 | 183 | 4.0 | 15.0 | 0.00 | 0.00 | 0.00 | 36 | 1012.4 |
| 20260509123003 | 57 | 224 | 5.0 | 16.0 | 0.00 | 0.00 | 0.00 | 37 | 1012.5 |
| 20260509122504 | 57 | 208 | 4.0 | 20.0 | 0.00 | 0.00 | 0.00 | 36 | 1012.6 |
| 20260509121504 | 57 | 164 | 0.0 | 15.0 | 0.00 | 0.00 | 0.00 | 36 | 1012.6 |
| 20260509121004 | 57 | 153 | 7.0 | 21.0 | 0.00 | 0.00 | 0.00 | 36 | 1012.6 |
| 20260509120004 | 58 | 213 | 2.0 | 12.0 | 0.00 | 0.00 | 0.00 | 37 | 1012.7 |
| 20260509114504 | 57 | 206 | 1.0 | 12.0 | 0.00 | 0.00 | 0.00 | 36 | 1012.7 |
| 20260509114004 | 57 | 176 | 6.0 | 18.0 | 0.00 | 0.00 | 0.00 | 35 | 1012.8 |
| 20260509113504 | 58 | 187 | 7.0 | 20.0 | 0.00 | 0.00 | 0.00 | 35 | 1012.8 |
| 20260509113003 | 58 | 167 | 4.0 | 15.0 | 0.00 | 0.00 | 0.00 | 36 | 1012.8 |
| 20260509112504 | 57 | 160 | 7.0 | 17.0 | 0.00 | 0.00 | 0.00 | 37 | 1012.8 |
| 20260509112004 | 57 | 194 | 2.0 | 9.0 | 0.00 | 0.00 | 0.00 | 38 | 1012.8 |
| 20260509111504 | 57 | 211 | 2.0 | 14.0 | 0.00 | 0.00 | 0.00 | 37 | 1012.9 |
| 20260509111004 | 57 | 174 | 6.0 | 17.0 | 0.00 | 0.00 | 0.00 | 36 | 1013.0 |
| 20260509110503 | 57 | 190 | 1.0 | 7.0 | 0.00 | 0.00 | 0.00 | 37 | 1012.9 |
| 20260509110003 | 57 | 170 | 1.0 | 14.0 | 0.00 | 0.00 | 0.00 | 36 | 1012.9 |
| 20260509105503 | 57 | 196 | 7.0 | 22.0 | 0.00 | 0.00 | 0.00 | 35 | 1013.0 |
| 20260509104503 | 57 | 188 | 1.0 | 7.0 | 0.00 | 0.00 | 0.00 | 38 | 1013.0 |
| 20260509104003 | 57 | 202 | 1.0 | 12.0 | 0.00 | 0.00 | 0.00 | 37 | 1013.0 |
| 20260509103504 | 57 | 200 | 5.0 | 14.0 | 0.00 | 0.00 | 0.00 | 37 | 1013.1 |
| 20260509103004 | 57 | 193 | 2.0 | 9.0 | 0.00 | 0.00 | 0.00 | 38 | 1013.1 |
| 20260509102503 | 57 | 214 | 6.0 | 14.0 | 0.00 | 0.00 | 0.00 | 39 | 1013.2 |
| 20260509102003 | 57 | 195 | 1.0 | 12.0 | 0.00 | 0.00 | 0.00 | 39 | 1013.1 |
| 20260509101504 | 57 | 196 | 2.0 | 9.0 | 0.00 | 0.00 | 0.00 | 37 | 1013.2 |
| 20260509101004 | 57 | 188 | 5.0 | 15.0 | 0.00 | 0.00 | 0.00 | 38 | 1013.2 |
| 20260509100504 | 57 | 227 | 4.0 | 12.0 | 0.00 | 0.00 | 0.00 | 37 | 1013.2 |
| 20260509100004 | 57 | 184 | 2.0 | 12.0 | 0.00 | 0.00 | 0.00 | 38 | 1013.3 |
| 20260509095503 | 57 | 184 | 2.0 | 15.0 | 0.00 | 0.00 | 0.00 | 39 | 1013.3 |
| 20260509095004 | 57 | 186 | 5.0 | 12.0 | 0.00 | 0.00 | 0.00 | 38 | 1013.3 |
| 20260509094504 | 57 | 220 | 1.0 | 7.0 | 0.00 | 0.00 | 0.00 | 38 | 1013.4 |
| 20260509093504 | 57 | 171 | 1.0 | 8.0 | 0.00 | 0.00 | 0.00 | 39 | 1013.5 |
| 20260509092503 | 58 | 189 | 3.0 | 18.0 | 0.00 | 0.00 | 0.00 | 39 | 1013.5 |
| 20260509092004 | 58 | 219 | 3.0 | 13.0 | 0.00 | 0.00 | 0.00 | 38 | 1013.5 |
| 20260509091503 | 58 | 210 | 2.0 | 15.0 | 0.00 | 0.00 | 0.00 | 38 | 1013.5 |
| 20260509090505 | 57 | 261 | 4.0 | 13.0 | 0.00 | 0.00 | 0.00 | 42 | 1013.6 |
| 20260509090004 | 57 | 197 | 2.0 | 8.0 | 0.00 | 0.00 | 0.00 | 45 | 1013.6 |
| 20260509085004 | 56 | 158 | 5.0 | 10.0 | 0.00 | 0.00 | 0.00 | 44 | 1013.7 |
| 20260509084504 | 56 | 181 | 4.0 | 13.0 | 0.00 | 0.00 | 0.00 | 44 | 1013.8 |
| 20260509084004 | 56 | 163 | 1.0 | 8.0 | 0.00 | 0.00 | 0.00 | 45 | 1013.8 |
| 20260509083504 | 56 | 228 | 2.0 | 9.0 | 0.00 | 0.00 | 0.00 | 44 | 1013.9 |
| 20260509083004 | 55 | 190 | 5.0 | 12.0 | 0.00 | 0.00 | 0.00 | 45 | 1013.9 |
| 20260509082504 | 55 | 175 | 10.0 | 17.0 | 0.00 | 0.00 | 0.00 | 45 | 1014.0 |
| 20260509082003 | 55 | 146 | 0.0 | 8.0 | 0.00 | 0.00 | 0.00 | 47 | 1014.0 |
| 20260509081504 | 54 | 145 | 1.0 | 8.0 | 0.00 | 0.00 | 0.00 | 47 | 1014.1 |
| 20260509081004 | 54 | 146 | 5.0 | 9.0 | 0.00 | 0.00 | 0.00 | 47 | 1014.2 |
| 20260509080504 | 54 | 151 | 1.0 | 7.0 | 0.00 | 0.00 | 0.00 | 49 | 1014.2 |
| 20260509080005 | 53 | 161 | 2.0 | 7.0 | 0.00 | 0.00 | 0.00 | 48 | 1014.2 |
| 20260509075504 | 53 | 153 | 5.0 | 10.0 | 0.00 | 0.00 | 0.00 | 48 | 1014.3 |
| 20260509075004 | 53 | 145 | 3.0 | 13.0 | 0.00 | 0.00 | 0.00 | 47 | 1014.3 |
| 20260509074504 | 53 | 177 | 7.0 | 10.0 | 0.00 | 0.00 | 0.00 | 47 | 1014.4 |
| 20260509073504 | 53 | 157 | 3.0 | 8.0 | 0.00 | 0.00 | 0.00 | 48 | 1014.3 |
| 20260509073004 | 53 | 166 | 2.0 | 7.0 | 0.00 | 0.00 | 0.00 | 48 | 1014.5 |
| 20260509071504 | 52 | 161 | 5.0 | 12.0 | 0.00 | 0.00 | 0.00 | 49 | 1014.5 |
| 20260509071003 | 52 | 187 | 1.0 | 7.0 | 0.00 | 0.00 | 0.00 | 50 | 1014.6 |
| 20260509070503 | 51 | 145 | 1.0 | 7.0 | 0.00 | 0.00 | 0.00 | 49 | 1014.6 |
| 20260509065503 | 51 | 136 | 4.0 | 8.0 | 0.00 | 0.00 | 0.00 | 50 | 1014.6 |
| 20260509065004 | 51 | 136 | 0.0 | 0.0 | 0.00 | 0.00 | 0.00 | 51 | 1014.7 |
| 20260509063503 | 50 | 163 | 5.0 | 10.0 | 0.00 | 0.00 | 0.00 | 50 | 1014.8 |
| 20260509063004 | 50 | 157 | 1.0 | 9.0 | 0.00 | 0.00 | 0.00 | 50 | 1014.8 |
| 20260509062503 | 50 | 152 | 3.0 | 9.0 | 0.00 | 0.00 | 0.00 | 51 | 1014.8 |
| 20260509062004 | 50 | 151 | 0.0 | 5.0 | 0.00 | 0.00 | 0.00 | 52 | 1014.8 |
| 20260509061504 | 49 | 141 | 2.0 | 6.0 | 0.00 | 0.00 | 0.00 | 52 | 1014.8 |
| 20260509061004 | 49 | 111 | 0.0 | 0.0 | 0.00 | 0.00 | 0.00 | 53 | 1014.9 |
| 20260509060504 | 48 | 111 | 2.0 | 6.0 | 0.00 | 0.00 | 0.00 | 54 | 1014.9 |
| 20260509060004 | 48 | 130 | 2.0 | 7.0 | 0.00 | 0.00 | 0.00 | 53 | 1014.8 |
| 20260509055003 | 47 | 137 | 2.0 | 6.0 | 0.00 | 0.00 | 0.00 | 55 | 1014.8 |
| 20260509054504 | 47 | 126 | 1.0 | 6.0 | 0.00 | 0.00 | 0.00 | 56 | 1014.9 |
| 20260509054003 | 46 | 157 | 5.0 | 8.0 | 0.00 | 0.00 | 0.00 | 56 | 1014.9 |
| 20260509053004 | 45 | 160 | 2.0 | 6.0 | 0.00 | 0.00 | 0.00 | 57 | 1015.0 |
| 20260509052004 | 44 | 155 | 2.0 | 6.0 | 0.00 | 0.00 | 0.00 | 58 | 1015.1 |
| 20260509051004 | 43 | 158 | 2.0 | 5.0 | 0.00 | 0.00 | 0.00 | 59 | 1015.2 |
| 20260509050504 | 43 | 159 | 3.0 | 8.0 | 0.00 | 0.00 | 0.00 | 60 | 1015.2 |
| 20260509050004 | 43 | 135 | 1.0 | 5.0 | 0.00 | 0.00 | 0.00 | 60 | 1015.2 |
| 20260509045004 | 42 | 137 | 0.0 | 0.0 | 0.00 | 0.00 | 0.00 | 61 | 1015.3 |
| 20260509044504 | 42 | 136 | 0.0 | 6.0 | 0.00 | 0.00 | 0.00 | 61 | 1015.4 |
| 20260509044004 | 42 | 142 | 1.0 | 5.0 | 0.00 | 0.00 | 0.00 | 62 | 1015.4 |
| 20260509043504 | 42 | 143 | 3.0 | 6.0 | 0.00 | 0.00 | 0.00 | 62 | 1015.4 |
| 20260509042504 | 41 | 164 | 0.0 | 0.0 | 0.00 | 0.00 | 0.00 | 63 | 1015.5 |
| 20260509042004 | 41 | 164 | 0.0 | 0.0 | 0.00 | 0.00 | 0.00 | 63 | 1015.5 |
| 20260509041504 | 40 | 164 | 0.0 | 0.0 | 0.00 | 0.00 | 0.00 | 63 | 1015.5 |
| 20260509041003 | 40 | 164 | 0.0 | 1.0 | 0.00 | 0.00 | 0.00 | 64 | 1015.5 |
| 20260509040503 | 40 | 164 | 0.0 | 0.0 | 0.00 | 0.00 | 0.00 | 64 | 1015.4 |
| 20260509040003 | 40 | 164 | 0.0 | 0.0 | 0.00 | 0.00 | 0.00 | 64 | 1015.6 |
| 20260509035504 | 39 | 164 | 0.0 | 0.0 | 0.00 | 0.00 | 0.00 | 64 | 1015.5 |
| 20260509034504 | 38 | 164 | 1.0 | 5.0 | 0.00 | 0.00 | 0.00 | 66 | 1015.5 |
| 20260509034004 | 37 | 165 | 0.0 | 0.0 | 0.00 | 0.00 | 0.00 | 67 | 1015.6 |
| 20260509033504 | 37 | 165 | 0.0 | 0.0 | 0.00 | 0.00 | 0.00 | 71 | 1015.6 |
| 20260509033004 | 36 | 165 | 0.0 | 0.0 | 0.00 | 0.00 | 0.00 | 72 | 1015.6 |
| 20260509032504 | 36 | 165 | 0.0 | 0.0 | 0.00 | 0.00 | 0.00 | 71 | 1015.6 |
| 20260509032004 | 36 | 165 | 0.0 | 0.0 | 0.00 | 0.00 | 0.00 | 72 | 1015.7 |
| 20260509031004 | 35 | 165 | 0.0 | 0.0 | 0.00 | 0.00 | 0.00 | 72 | 1015.8 |
| 20260509030504 | 35 | 165 | 0.0 | 0.0 | 0.00 | 0.00 | 0.00 | 72 | 1015.8 |
| 20260509030004 | 35 | 165 | 0.0 | 0.0 | 0.00 | 0.00 | 0.00 | 72 | 1015.8 |
| 20260509025504 | 35 | 165 | 0.0 | 0.0 | 0.00 | 0.00 | 0.00 | 71 | 1015.8 |
| 20260509025004 | 35 | 165 | 0.0 | 0.0 | 0.00 | 0.00 | 0.00 | 70 | 1015.8 |
| 20260509024504 | 35 | 165 | 0.0 | 0.0 | 0.00 | 0.00 | 0.00 | 70 | 1015.8 |
| 20260509024004 | 35 | 165 | 0.0 | 0.0 | 0.00 | 0.00 | 0.00 | 71 | 1015.9 |
| 20260509023504 | 35 | 165 | 0.0 | 0.0 | 0.00 | 0.00 | 0.00 | 70 | 1015.9 |
| 20260509023004 | 35 | 165 | 0.0 | 0.0 | 0.00 | 0.00 | 0.00 | 69 | 1015.9 |
| 20260509022004 | 35 | 165 | 0.0 | 0.0 | 0.00 | 0.00 | 0.00 | 67 | 1015.9 |
| 20260509021504 | 36 | 165 | 0.0 | 0.0 | 0.00 | 0.00 | 0.00 | 66 | 1016.0 |
| 20260509021004 | 36 | 165 | 0.0 | 0.0 | 0.00 | 0.00 | 0.00 | 66 | 1016.0 |
| 20260509020504 | 36 | 165 | 0.0 | 0.0 | 0.00 | 0.00 | 0.00 | 66 | 1016.1 |
| 20260509020004 | 36 | 165 | 0.0 | 0.0 | 0.00 | 0.00 | 0.00 | 65 | 1016.1 |
| 20260509015503 | 36 | 165 | 0.0 | 0.0 | 0.00 | 0.00 | 0.00 | 66 | 1016.1 |
| 20260509015004 | 36 | 165 | 0.0 | 0.0 | 0.00 | 0.00 | 0.00 | 66 | 1016.1 |
| 20260509014504 | 35 | 165 | 0.0 | 0.0 | 0.00 | 0.00 | 0.00 | 67 | 1016.2 |
| 20260509014004 | 35 | 165 | 0.0 | 0.0 | 0.00 | 0.00 | 0.00 | 67 | 1016.1 |
| 20260509013003 | 35 | 165 | 0.0 | 0.0 | 0.00 | 0.00 | 0.00 | 67 | 1016.2 |
| 20260509012503 | 36 | 165 | 0.0 | 0.0 | 0.00 | 0.00 | 0.00 | 66 | 1016.3 |
| 20260509012004 | 36 | 165 | 0.0 | 0.0 | 0.00 | 0.00 | 0.00 | 65 | 1016.3 |
| 20260509011504 | 36 | 165 | 0.0 | 0.0 | 0.00 | 0.00 | 0.00 | 63 | 1016.4 |
| 20260509011004 | 37 | 165 | 0.0 | 0.0 | 0.00 | 0.00 | 0.00 | 63 | 1016.3 |
| 20260509010504 | 37 | 165 | 0.0 | 0.0 | 0.00 | 0.00 | 0.00 | 62 | 1016.4 |
| 20260509010004 | 37 | 165 | 0.0 | 0.0 | 0.00 | 0.00 | 0.00 | 62 | 1016.4 |
| 20260509005504 | 37 | 167 | 0.0 | 0.0 | 0.00 | 0.00 | 0.00 | 63 | 1016.4 |
| 20260509005004 | 37 | 167 | 0.0 | 0.0 | 0.00 | 0.00 | 0.00 | 63 | 1016.5 |
| 20260509004504 | 37 | 167 | 0.0 | 0.0 | 0.00 | 0.00 | 0.00 | 62 | 1016.5 |
| 20260509004004 | 37 | 167 | 0.0 | 0.0 | 0.00 | 0.00 | 0.00 | 62 | 1016.5 |
| 20260509003503 | 37 | 167 | 0.0 | 0.0 | 0.00 | 0.00 | 0.00 | 62 | 1016.5 |
| 20260509003004 | 37 | 167 | 0.0 | 0.0 | 0.00 | 0.00 | 0.00 | 62 | 1016.5 |
| 20260509002503 | 37 | 167 | 0.0 | 0.0 | 0.00 | 0.00 | 0.00 | 62 | 1016.5 |
| 20260509002004 | 37 | 167 | 0.0 | 0.0 | 0.00 | 0.00 | 0.00 | 62 | 1016.6 |
| 20260509001504 | 37 | 167 | 0.0 | 0.0 | 0.00 | 0.00 | 0.00 | 61 | 1016.6 |
| 20260509001003 | 37 | 167 | 0.0 | 0.0 | 0.00 | 0.00 | 0.00 | 61 | 1016.7 |
| 20260509000004 | 37 | 168 | 0.0 | 5.0 | 0.00 | 0.00 | 0.00 | 61 | 1016.8 |
| 20260508235504 | 37 | 180 | 0.0 | 0.0 | 0.00 | 0.00 | 0.00 | 62 | 1016.8 |
| 20260508235005 | 37 | 180 | 0.0 | 0.0 | 0.00 | 0.00 | 0.00 | 62 | 1016.8 |
| 20260508234005 | 37 | 180 | 0.0 | 3.0 | 0.00 | 0.00 | 0.00 | 62 | 1016.9 |
| 20260508233504 | 37 | 180 | 0.0 | 0.0 | 0.00 | 0.00 | 0.00 | 63 | 1016.8 |
| 20260508233005 | 38 | 180 | 0.0 | 0.0 | 0.00 | 0.00 | 0.00 | 62 | 1016.7 |
| 20260508232504 | 37 | 180 | 0.0 | 0.0 | 0.00 | 0.00 | 0.00 | 63 | 1016.7 |
| 20260508232004 | 37 | 180 | 0.0 | 0.0 | 0.00 | 0.00 | 0.00 | 64 | 1016.8 |
| 20260508231504 | 38 | 180 | 0.0 | 0.0 | 0.00 | 0.00 | 0.00 | 65 | 1016.9 |
| 20260508231004 | 38 | 180 | 0.0 | 0.0 | 0.00 | 0.00 | 0.00 | 64 | 1016.9 |
| 20260508230504 | 38 | 180 | 0.0 | 0.0 | 0.00 | 0.00 | 0.00 | 63 | 1016.9 |
| 20260508230004 | 37 | 180 | 0.0 | 0.0 | 0.00 | 0.00 | 0.00 | 64 | 1017.0 |
| 20260508225504 | 37 | 181 | 0.0 | 0.0 | 0.00 | 0.00 | 0.00 | 66 | 1017.0 |
| 20260508225004 | 37 | 181 | 0.0 | 0.0 | 0.00 | 0.00 | 0.00 | 65 | 1017.0 |
| 20260508224503 | 38 | 181 | 0.0 | 0.0 | 0.00 | 0.00 | 0.00 | 64 | 1017.1 |
| 20260508223503 | 39 | 181 | 0.0 | 0.0 | 0.00 | 0.00 | 0.00 | 62 | 1017.2 |
| 20260508223004 | 39 | 181 | 0.0 | 0.0 | 0.00 | 0.00 | 0.00 | 61 | 1017.2 |
| 20260508222503 | 40 | 181 | 0.0 | 0.0 | 0.00 | 0.00 | 0.00 | 60 | 1017.3 |
| 20260508222004 | 40 | 181 | 0.0 | 0.0 | 0.00 | 0.00 | 0.00 | 58 | 1017.4 |
| 20260508221004 | 41 | 181 | 0.0 | 0.0 | 0.00 | 0.00 | 0.00 | 57 | 1017.5 |
| 20260508220505 | 41 | 181 | 0.0 | 0.0 | 0.00 | 0.00 | 0.00 | 57 | 1017.5 |
| 20260508215504 | 41 | 182 | 0.0 | 0.0 | 0.00 | 0.00 | 0.00 | 56 | 1017.4 |
| 20260508214504 | 41 | 182 | 0.0 | 0.0 | 0.00 | 0.00 | 0.00 | 56 | 1017.4 |
| 20260508214003 | 41 | 182 | 0.0 | 0.0 | 0.00 | 0.00 | 0.00 | 56 | 1017.5 |
| 20260508213504 | 41 | 182 | 0.0 | 0.0 | 0.00 | 0.00 | 0.00 | 56 | 1017.4 |
| 20260508213004 | 42 | 182 | 0.0 | 0.0 | 0.00 | 0.00 | 0.00 | 55 | 1017.4 |
| 20260508212504 | 42 | 182 | 0.0 | 3.0 | 0.00 | 0.00 | 0.00 | 54 | 1017.5 |
| 20260508212004 | 42 | 184 | 0.0 | 1.0 | 0.00 | 0.00 | 0.00 | 53 | 1017.5 |
| 20260508211503 | 43 | 171 | 0.0 | 0.0 | 0.00 | 0.00 | 0.00 | 53 | 1017.4 |
| 20260508211004 | 43 | 173 | 0.0 | 5.0 | 0.00 | 0.00 | 0.00 | 52 | 1017.5 |
| 20260508210504 | 43 | 173 | 0.0 | 0.0 | 0.00 | 0.00 | 0.00 | 52 | 1017.5 |
| 20260508205504 | 44 | 178 | 0.0 | 6.0 | 0.00 | 0.00 | 0.00 | 51 | 1017.6 |
| 20260508205003 | 44 | 153 | 0.0 | 7.0 | 0.00 | 0.00 | 0.00 | 51 | 1017.6 |
| 20260508204004 | 44 | 182 | 1.0 | 6.0 | 0.00 | 0.00 | 0.00 | 50 | 1017.5 |
| 20260508203504 | 44 | 167 | 0.0 | 7.0 | 0.00 | 0.00 | 0.00 | 50 | 1017.5 |
| 20260508203004 | 44 | 150 | 0.0 | 0.0 | 0.00 | 0.00 | 0.00 | 49 | 1017.5 |
| 20260508202503 | 44 | 150 | 0.0 | 0.0 | 0.00 | 0.00 | 0.00 | 48 | 1017.4 |
| 20260508202004 | 45 | 150 | 0.0 | 0.0 | 0.00 | 0.00 | 0.00 | 48 | 1017.4 |
| 20260508201004 | 45 | 150 | 0.0 | 0.0 | 0.00 | 0.00 | 0.00 | 46 | 1017.3 |
| 20260508200504 | 46 | 149 | 0.0 | 3.0 | 0.00 | 0.00 | 0.00 | 45 | 1017.4 |
| 20260508200004 | 46 | 148 | 0.0 | 0.0 | 0.00 | 0.00 | 0.00 | 44 | 1017.4 |
| 20260508195504 | 46 | 147 | 0.0 | 0.0 | 0.00 | 0.00 | 0.00 | 44 | 1017.3 |
| 20260508195004 | 47 | 147 | 0.0 | 0.0 | 0.00 | 0.00 | 0.00 | 44 | 1017.3 |
| 20260508194504 | 47 | 147 | 0.0 | 0.0 | 0.00 | 0.00 | 0.00 | 43 | 1017.3 |
| 20260508194004 | 47 | 147 | 0.0 | 5.0 | 0.00 | 0.00 | 0.00 | 43 | 1017.2 |
| 20260508193003 | 47 | 147 | 0.0 | 0.0 | 0.00 | 0.00 | 0.00 | 43 | 1017.2 |